{"data":{"norad_id":66008,"epoch":"2026-05-25T04:01:22.977120Z","epoch_age_seconds":53832,"freshness":"FRESH","line1":"1 66008U 25232D   26145.16762705  .00021302  00000+0  72904-3 0  9998","line2":"2 66008  53.1593 108.7471 0001260  87.3779 272.7366 15.30210545 35126","mean_motion":15.30210545,"eccentricity":0.000126,"inclination_deg":53.1593,"raan_deg":108.7471,"arg_perigee_deg":87.3779,"mean_anomaly_deg":272.7366,"bstar":0.00072904,"rev_number":3512,"period_min":94.10469720688,"perigee_km":474.32006573728,"apogee_km":476.04710252448,"semimajor_km":6853.3205841309,"source":"CELESTRAK","updated_at":"2026-05-25T13:38:21.013515Z"}}